Weather History for KHRO - November, 2012

Change the Weather History Date:

Thursday, November 22, 2012

  Actual Average Record
Temperature  
Mean Temperature 58 °F 46 °F  
Max Temperature 69 °F 56 °F 81 °F (1900)
Min Temperature 47 °F 36 °F 10 °F (1964)
Degree Days  
Heating Degree Days 7 19  
Month to date heating degree days 301 330  
Since 1 July heating degree days 595 595  
Cooling Degree Days 0 0  
Month to date cooling degree days 2 0  
Year to date cooling degree days 1961 1412  
Growing Degree Days 8 (Base 50)    
Moisture  
Dew Point 44 °F    
Average Humidity 54    
Maximum Humidity 71    
Minimum Humidity 37    
Precipitation  
Precipitation 0.13 in 0.13 in 1.67 in (1982)
Month to date precipitation 1.10 3.18  
Year to date precipitation 27.42 39.89  
Snow  
Snow 0.00 in 0.00 in 1.00 in (1971)
Month to date snowfall 0.0 0.0  
Since 1 July snowfall 0.0 0.1  
Since 1 September snowfall 0.0 0.1  
Snow Depth 0.00 in    
Sea Level Pressure  
Sea Level Pressure 30.08 in    
Wind  
Wind Speed 8 mph (South)    
Max Wind Speed 16 mph    
Max Gust Speed 22 mph    
Visibility 10 miles    
Events Rain , Thunderstorm    
T = Trace of Precipitation, MM = Missing Value Source: NWS Daily Summary

Daily Weather History Graph

Daily Weather History Graph

Search for Another Location

Airport or City:

Trip Planner

Search our weather history database for the weather conditions in past years. The results will help you decide how hot, cold, wet, or windy it might be!

Date:

Astronomy

Nov. 22, 2012 Rise Set
Actual Time 6:57 AM CST 5:00 PM CST
Civil Twilight 6:29 AM CST 5:28 PM CST
Nautical Twilight 5:57 AM CST 5:59 PM CST
Astronomical Twilight 5:27 AM CST 6:30 PM CST
Moon 1:38 PM CST (11/22) 1:26 AM CST (11/22)
Length of Visible Light 10h 58m
Length of Day
10h 03m
Waxing Gibbous, 71% of the Moon is Illuminated
Nov 22
Waxing Gibbous
Nov 28
Full
Dec 6
Last Quarter
Dec 13
New
Dec 19
First Quarter

Hourly Weather History & Observations

Time (CST) Temp. Dew Point Humidity Pressure Visibility Wind Dir Wind Speed Gust Speed Precip Events Conditions
12:53 AM 50.0 °F 37.9 °F 63% 30.13 in 10.0 mi SSE 8.1 mph - N/A   Clear
1:53 AM 48.0 °F 37.9 °F 68% 30.12 in 10.0 mi SSE 9.2 mph - N/A   Clear
2:53 AM 48.9 °F 37.9 °F 66% 30.11 in 10.0 mi SSE 8.1 mph - N/A   Clear
3:53 AM 48.9 °F 39.0 °F 69% 30.10 in 10.0 mi SSE 12.7 mph - N/A   Clear
4:53 AM 51.1 °F 39.0 °F 63% 30.09 in 10.0 mi SSE 11.5 mph - N/A   Clear
5:53 AM 51.1 °F 39.0 °F 63% 30.10 in 10.0 mi SSE 9.2 mph - N/A   Clear
6:53 AM 50.0 °F 39.0 °F 66% 30.11 in 10.0 mi South 9.2 mph - N/A   Clear
7:53 AM 51.1 °F 39.9 °F 66% 30.12 in 10.0 mi SSE 5.8 mph - N/A   Clear
8:53 AM 54.0 °F 41.0 °F 62% 30.12 in 10.0 mi South 8.1 mph - N/A   Clear
9:53 AM 61.0 °F 39.9 °F 46% 30.12 in 10.0 mi South 8.1 mph 16.1 mph N/A   Clear
10:53 AM 61.0 °F 39.9 °F 46% 30.10 in 10.0 mi South 12.7 mph 21.9 mph N/A   Clear
11:53 AM 62.1 °F 41.0 °F 46% 30.06 in 10.0 mi South 11.5 mph 18.4 mph N/A   Clear
12:53 PM 63.0 °F 42.1 °F 46% 30.04 in 10.0 mi SSE 9.2 mph - N/A   Clear
1:53 PM 66.0 °F 43.0 °F 43% 30.01 in 10.0 mi South 9.2 mph - N/A   Clear
2:53 PM 69.1 °F 43.0 °F 39% 30.00 in 10.0 mi South 10.4 mph 20.7 mph N/A   Scattered Clouds
3:53 PM 66.0 °F 43.0 °F 43% 30.01 in 10.0 mi SSW 3.5 mph - 0.00 in Rain Light Rain
4:53 PM 64.0 °F 43.0 °F 46% 30.02 in 10.0 mi South 5.8 mph - 0.00 in   Mostly Cloudy
5:53 PM 61.0 °F 46.0 °F 58% 30.03 in 10.0 mi South 8.1 mph - 0.00 in Rain Light Rain
6:53 PM 60.1 °F 46.0 °F 60% 30.04 in 10.0 mi South 8.1 mph - 0.01 in   Overcast
7:53 PM 61.0 °F 46.0 °F 58% 30.06 in 10.0 mi SW 3.5 mph - 0.00 in Rain , Thunderstorm Light Rain
8:18 PM 55.4 °F 51.8 °F 88% 30.09 in 2.0 mi Calm Calm - 0.10 in Rain Heavy Rain
8:30 PM 55.4 °F 51.8 °F 88% 30.10 in 7.0 mi Calm Calm - 0.12 in Rain Light Rain
8:46 PM 55.4 °F 51.8 °F 88% 30.10 in 10.0 mi WSW 3.5 mph - 0.12 in Thunderstorm Thunderstorm
8:53 PM 55.9 °F 52.0 °F 87% 30.10 in 10.0 mi SSW 3.5 mph - 0.12 in Thunderstorm Thunderstorm
9:01 PM 55.4 °F 51.8 °F 88% 30.10 in 10.0 mi South 4.6 mph - N/A   Mostly Cloudy
9:53 PM 55.9 °F 51.1 °F 84% 30.09 in 10.0 mi SE 4.6 mph - N/A   Mostly Cloudy
10:53 PM 59.0 °F 48.9 °F 69% 30.08 in 10.0 mi Calm Calm - N/A   Overcast
11:53 PM 57.9 °F 50.0 °F 75% 30.13 in 10.0 mi NW 8.1 mph 17.3 mph N/A   Mostly Cloudy